Cairns, Queensland

12:43 AM AEST on February 07, 2016 (GMT +1000)
Cairns International

Weather History for YBCS - October, 2013

Change the Weather History Date:

Wednesday, October 30, 2013

  Actual Average Record
Temperature  
Mean Temperature 74 °F -  
Max Temperature 82 °F 87 °F 88 °F (2012)
Min Temperature 66 °F 72 °F 66 °F (1996)
Cooling Degree Days 9    
Growing Degree Days 24 (Base 50)    
Moisture  
Dew Point 65 °F    
Average Humidity 70    
Maximum Humidity 94    
Minimum Humidity 46    
Precipitation  
Precipitation 0.00 in 0.13 in - ()
Sea Level Pressure  
Sea Level Pressure 29.92 in    
Wind  
Wind Speed 6 mph ()    
Max Wind Speed 14 mph    
Max Gust Speed -    
Visibility 7.2 miles    
Events      
Averages and records for this station are not official NWS values.
T = Trace of Precipitation, MM = Missing Value Source: Averaged Metar Reports

Daily Weather History Graph

Daily Weather History Graph

Search for Another Location

Airport or City:

Trip Planner

Search our weather history database for the weather conditions in past years. The results will help you decide how hot, cold, wet, or windy it might be!

Date:

Astronomy

Oct. 30, 2013 Rise Set
Actual Time 5:40 AM AEST 6:21 PM AEST
Civil Twilight 5:17 AM AEST 6:43 PM AEST
Nautical Twilight 4:51 AM AEST 7:10 PM AEST
Astronomical Twilight 4:24 AM AEST 7:36 PM AEST
Moon 2:17 AM AEST (10/30) 2:28 PM AEST (10/30)
Length of Visible Light 13h 26m
Length of Day
12h 41m
Waning Crescent, 22% of the Moon is Illuminated
Oct 30
Waning Crescent
Nov 3
New
Nov 10
First Quarter
Nov 18
Full
Nov 26
Last Quarter

Hourly Weather History & Observations

Time (AEST) Temp. Heat Index Dew Point Humidity Pressure Visibility Wind Dir Wind Speed Gust Speed Precip Events Conditions
12:00 AM 71 °F - 65 °F 74% 29.96 in - SSE 6.9 mph - -  
12:00 AM 71.6 °F - 64.4 °F 78% 29.95 in 6.2 mi SSE 6.9 mph - N/A   Partly Cloudy
12:30 AM 69.8 °F - 64.4 °F 83% 29.92 in 6.2 mi WSW 3.5 mph - N/A   Partly Cloudy
1:00 AM 68 °F - 64 °F 85% 29.94 in - Calm Calm - -  
1:00 AM 68.0 °F - 64.4 °F 88% 29.92 in 6.2 mi Calm Calm - N/A   Partly Cloudy
1:30 AM 68.0 °F - 64.4 °F 88% 29.92 in 6.2 mi SW 2.3 mph - N/A   Partly Cloudy
2:00 AM 69.8 °F - 64.4 °F 83% 29.92 in 6.2 mi South 3.5 mph - N/A   Partly Cloudy
2:30 AM 68.0 °F - 66.2 °F 94% 29.89 in 6.2 mi WNW 3.5 mph - N/A   Partly Cloudy
3:00 AM 67 °F - 65 °F 92% 29.91 in - WNW 1.2 mph - -  
3:00 AM 66.2 °F - 64.4 °F 94% 29.89 in 6.2 mi WNW 1.2 mph - N/A   Scattered Clouds
3:30 AM 68.0 °F - 64.4 °F 88% 29.89 in 6.2 mi Calm Calm - N/A   Scattered Clouds
4:00 AM 69 °F - 64 °F 81% 29.92 in - SSE 13.8 mph - -  
4:00 AM 69.8 °F - 64.4 °F 83% 29.92 in 6.2 mi SSE 13.8 mph - N/A   Mostly Cloudy
4:30 AM 69.8 °F - 64.4 °F 83% 29.92 in 6.2 mi SSE 9.2 mph - N/A   Scattered Clouds
5:00 AM 68.0 °F - 64.4 °F 88% 29.92 in 6.2 mi SE 10.4 mph - N/A   Scattered Clouds
5:30 AM 69.8 °F - 64.4 °F 83% 29.95 in 6.2 mi SSE 9.2 mph - N/A   Partly Cloudy
6:00 AM 68 °F - 65 °F 86% 29.96 in 19 mi WNW 4.6 mph - -   Partly Cloudy
6:00 AM 68.0 °F - 64.4 °F 88% 29.95 in 6.2 mi WNW 4.6 mph - N/A   Partly Cloudy
6:30 AM 69.8 °F - 66.2 °F 88% 29.95 in 6.2 mi WSW 2.3 mph - N/A   Partly Cloudy
7:00 AM 74 °F - 65 °F 66% 29.97 in - East 4.6 mph - -  
7:00 AM 73.4 °F - 64.4 °F 73% 29.95 in 6.2 mi East 4.6 mph - N/A   Partly Cloudy
7:30 AM 75.2 °F - 64.4 °F 69% 29.95 in 6.2 mi ESE 3.5 mph - N/A   Partly Cloudy
8:00 AM 77.0 °F - 64.4 °F 65% 29.95 in 6.2 mi WNW 4.6 mph - N/A   Partly Cloudy
8:30 AM 78.8 °F - 64.4 °F 61% 29.98 in 6.2 mi WNW 4.6 mph - N/A   Partly Cloudy
9:00 AM 80 °F - 64 °F 48% 29.97 in 19 mi NE 8.1 mph - -   Partly Cloudy
9:00 AM 80.6 °F 82.3 °F 64.4 °F 58% 29.98 in 6.2 mi NE 8.1 mph - N/A   Partly Cloudy
9:30 AM 80.6 °F 82.3 °F 64.4 °F 58% 29.95 in 6.2 mi NE 8.1 mph - N/A   Partly Cloudy
10:00 AM 81 °F - 64 °F 46% 29.97 in - NNE 9.2 mph - -  
10:00 AM 80.6 °F 82.3 °F 64.4 °F 58% 29.95 in 6.2 mi NNE 9.2 mph - N/A   Partly Cloudy
10:30 AM 82.4 °F 83.9 °F 64.4 °F 54% 29.95 in 6.2 mi NNE 10.4 mph - N/A   Partly Cloudy
11:00 AM 82.4 °F 83.9 °F 64.4 °F 54% 29.92 in 6.2 mi NNE 10.4 mph - N/A   Partly Cloudy
11:30 AM 82.4 °F 83.9 °F 64.4 °F 54% 29.92 in 6.2 mi NNE 12.7 mph - N/A   Partly Cloudy
12:00 PM 82 °F - 65 °F 47% 29.93 in 19 mi NNE 11.5 mph - -   Partly Cloudy
12:00 PM 82.4 °F 83.9 °F 64.4 °F 54% 29.92 in 6.2 mi NNE 11.5 mph - N/A   Partly Cloudy
12:30 PM 82.4 °F 83.9 °F 64.4 °F 54% 29.92 in 6.2 mi NNE 10.4 mph - N/A   Partly Cloudy
1:00 PM 81 °F - 65 °F 48% 29.91 in - NNE 10.4 mph - -  
1:00 PM 80.6 °F 82.3 °F 64.4 °F 58% 29.89 in 6.2 mi NNE 10.4 mph - N/A   Partly Cloudy
1:30 PM 82.4 °F 84.6 °F 66.2 °F 58% 29.89 in 6.2 mi North 12.7 mph - N/A   Partly Cloudy
2:00 PM 82.4 °F 84.6 °F 66.2 °F 58% 29.86 in 6.2 mi NNE 11.5 mph - N/A   Scattered Clouds
2:30 PM 82.4 °F 84.6 °F 66.2 °F 58% 29.86 in 6.2 mi NNE 10.4 mph - N/A   Scattered Clouds
3:00 PM 81 °F - 66 °F 51% 29.87 in 19 mi NE 8.1 mph - -   Partly Cloudy
3:00 PM 80.6 °F 82.7 °F 66.2 °F 61% 29.86 in 6.2 mi NE 8.1 mph - N/A   Scattered Clouds
3:30 PM 80.6 °F 82.7 °F 66.2 °F 61% 29.86 in 6.2 mi NNE 9.2 mph - N/A   Scattered Clouds
4:00 PM 81 °F - 65 °F 50% 29.87 in - NE 8.1 mph - -  
4:00 PM 80.6 °F 82.7 °F 66.2 °F 61% 29.86 in 6.2 mi NE 8.1 mph - N/A   Scattered Clouds
4:30 PM 80.6 °F 82.7 °F 66.2 °F 61% 29.86 in 6.2 mi NNE 8.1 mph - N/A   Partly Cloudy
5:00 PM 80.6 °F 82.3 °F 64.4 °F 58% 29.86 in 6.2 mi NNE 8.1 mph - N/A   Partly Cloudy
5:30 PM 78.8 °F - 64.4 °F 61% 29.86 in 6.2 mi NE 6.9 mph - N/A   Partly Cloudy
6:00 PM 77 °F - 66 °F 60% 29.89 in - NNE 5.8 mph - -  
6:00 PM 77.0 °F - 66.2 °F 69% 29.89 in 6.2 mi NNE 5.8 mph - N/A   Partly Cloudy
6:30 PM 77.0 °F - 66.2 °F 69% 29.89 in - NNE 4.6 mph - N/A   Clear
7:00 PM 74 °F - 66 °F 70% 29.90 in - North 1.2 mph - -  
7:00 PM 75.2 °F - 66.2 °F 73% 29.89 in 6.2 mi North 1.2 mph - N/A   Partly Cloudy
7:30 PM 73.4 °F - 66.2 °F 78% 29.89 in 6.2 mi Calm Calm - N/A   Partly Cloudy
8:00 PM 75.2 °F - 66.2 °F 73% 29.89 in 6.2 mi WNW 4.6 mph - N/A   Scattered Clouds
8:30 PM 75.2 °F - 66.2 °F 73% 29.92 in 6.2 mi WNW 4.6 mph - N/A   Scattered Clouds
9:00 PM 74 °F - 67 °F 74% 29.92 in - West 1.2 mph - -  
9:00 PM 73.4 °F - 68.0 °F 83% 29.92 in 6.2 mi West 1.2 mph - N/A   Scattered Clouds
9:30 PM 73.4 °F - 68.0 °F 83% 29.92 in 6.2 mi WNW 5.8 mph - N/A   Partly Cloudy
10:00 PM 73 °F - 67 °F 77% 29.94 in - WNW 5.8 mph - -  
10:00 PM 73.4 °F - 68.0 °F 83% 29.92 in 6.2 mi WNW 5.8 mph - N/A   Partly Cloudy
10:30 PM 73.4 °F - 66.2 °F 78% 29.92 in 6.2 mi West 5.8 mph - N/A   Partly Cloudy
11:00 PM 73.4 °F - 66.2 °F 78% 29.92 in 6.2 mi West 5.8 mph - N/A   Partly Cloudy
11:30 PM 71.6 °F - 66.2 °F 83% 29.89 in 6.2 mi West 4.6 mph - N/A   Partly Cloudy